Theta_e
336 337 338 340 346 347 349 350 349 348 348 347 347 348 349 347 346 346 346 345 346 346 345 345 344 342 342 341 341 341 342 342 342 342 341 342 343 343 344 344 345 346 347 349 349 351 351 351 351 349 350 349 350 349 346 347 349 348 348 349 349 349 348 348 348 348 348 348 347 348 348 349 350 350 350 351 350 350 348 348 348 347 348 348 350
335 338 339 341 345 346 348 348 350 349 348 347 347 347 348 347 346 346 345 344 344 344 344 344 343 342 341 340 340 340 341 341 342 342 342 342 343 343 344 345 344 346 347 348 349 350 352 350 350 351 350 345 346 347 347 348 348 348 349 348 349 349 348 349 349 348 348 347 347 348 348 348 349 350 349 350 350 349 347 347 347 347 347 349 349
333 338 339 340 343 346 347 348 348 348 347 347 347 347 347 346 346 345 344 343 343 343 342 342 342 342 341 340 340 340 342 343 341 342 342 342 342 343 344 345 345 346 347 348 349 351 351 351 350 350 351 347 347 347 346 348 348 348 348 348 349 349 349 350 351 348 348 348 348 347 346 347 348 349 348 349 349 349 346 346 346 346 347 349 349
334 336 338 339 341 343 346 347 347 347 346 346 346 346 346 346 345 345 344 343 343 343 343 342 342 342 340 340 340 341 342 343 345 345 343 342 343 343 344 345 345 346 346 348 349 351 350 351 352 349 346 346 345 346 347 347 348 348 348 348 348 348 348 349 349 348 347 347 346 345 345 347 347 348 348 348 349 349 346 346 346 348 349 349 349
334 337 338 339 342 342 345 346 347 346 346 346 346 346 346 345 345 345 345 344 344 344 344 343 342 342 341 341 341 341 342 343 345 346 345 344 345 344 344 344 345 346 346 348 350 350 350 351 350 349 344 347 347 347 347 347 347 348 348 347 348 348 348 347 347 346 344 343 342 344 347 346 347 346 348 348 349 347 345 347 347 347 347 348 348
333 337 338 339 340 342 343 345 346 346 346 346 346 346 345 345 345 345 346 346 345 345 344 343 342 342 342 343 343 340 342 344 346 346 347 345 345 345 344 345 345 346 347 348 349 350 350 349 349 348 345 346 346 346 347 346 346 347 347 347 347 347 347 346 345 344 342 340 340 345 346 346 346 346 347 347 349 346 347 347 347 348 348 348 348
333 336 337 338 340 340 340 343 345 345 345 345 346 346 346 345 346 345 345 346 345 345 345 344 343 342 342 342 342 340 343 345 346 346 346 347 346 346 346 345 346 347 349 349 349 350 350 350 345 347 348 346 344 345 346 346 346 346 346 346 347 346 345 344 342 341 339 341 344 345 345 345 346 347 347 347 348 348 347 347 347 347 347 348 347
332 334 336 337 338 339 339 342 343 345 345 345 345 345 345 345 345 345 345 345 345 344 344 344 343 342 342 342 342 342 345 345 345 346 345 346 346 346 346 346 346 348 349 348 349 350 349 349 344 347 347 346 345 345 345 344 345 346 346 346 346 345 343 342 340 338 337 340 344 345 345 345 346 347 347 348 347 348 348 347 347 346 346 346 343
328 331 335 336 337 337 338 340 342 344 345 345 345 345 345 345 344 345 344 344 343 343 344 344 342 342 343 343 343 342 340 339 344 345 345 345 345 346 346 346 346 348 348 349 350 351 350 345 347 345 346 346 344 344 344 344 344 344 345 345 345 343 341 340 338 336 338 341 342 344 345 344 345 345 345 347 347 347 347 346 347 347 346 343 342
325 329 333 335 335 335 337 339 341 343 344 345 344 344 344 344 344 344 344 344 344 343 343 343 342 342 344 340 336 336 339 339 339 339 344 344 345 346 346 346 346 347 348 349 350 350 349 347 350 348 349 346 344 344 342 343 343 344 344 344 343 342 341 339 336 336 339 341 343 344 344 340 345 344 345 347 346 345 343 340 342 341 342 342 342
323 328 330 332 332 334 337 338 339 341 343 344 344 344 344 344 344 344 344 343 343 342 342 341 341 342 342 339 338 338 339 339 338 340 340 342 345 345 346 347 347 347 347 349 351 350 347 345 348 345 348 345 343 343 343 343 343 342 343 343 343 342 340 337 336 339 340 341 343 343 340 338 344 343 344 346 346 345 341 340 339 341 343 344 343
323 325 328 330 329 332 335 337 338 340 341 342 343 343 343 343 343 343 343 343 342 342 341 342 343 340 339 338 338 339 339 338 338 338 339 341 343 345 345 345 346 347 347 349 349 348 347 348 345 345 344 342 342 342 342 342 342 342 342 342 342 340 337 335 337 338 340 341 342 343 342 342 343 342 344 347 346 345 342 342 344 344 345 344 344
321 322 326 328 329 330 333 336 337 339 340 341 342 343 342 343 343 343 343 343 342 341 341 341 340 339 339 338 338 338 339 340 339 340 340 341 342 343 345 345 346 347 347 349 348 347 348 343 345 346 342 341 340 340 340 340 340 341 341 341 339 337 334 333 336 338 339 341 341 342 342 343 343 341 345 346 346 344 344 343 342 344 344 343 343
319 321 323 326 328 327 330 334 336 338 339 340 341 342 342 341 343 343 343 342 341 340 343 340 339 339 339 339 339 339 339 340 340 340 341 342 342 343 343 345 345 347 348 348 348 345 344 344 345 344 342 339 339 338 338 338 339 340 340 339 337 334 331 331 334 337 338 339 339 341 341 340 340 341 344 346 345 344 343 342 343 341 341 342 342
320 320 323 326 327 328 326 331 334 336 338 339 340 340 340 342 342 341 342 341 340 342 342 340 340 340 339 340 339 339 339 339 339 341 342 342 343 343 343 344 345 346 347 347 346 344 344 346 341 342 343 341 339 339 339 340 340 338 339 337 335 333 331 333 335 337 337 338 339 339 341 340 341 342 342 344 344 343 343 343 342 341 341 341 341
319 321 324 327 328 329 329 327 330 333 335 337 338 339 339 340 341 340 340 341 340 340 341 340 339 339 339 339 339 340 340 340 340 341 342 342 342 342 343 344 344 344 344 345 344 343 341 343 343 341 341 339 340 340 339 340 339 338 337 335 332 329 328 329 335 336 337 337 338 339 339 339 339 341 342 342 343 343 342 342 341 340 341 339 340
318 322 325 326 328 328 329 329 329 329 330 332 334 336 338 339 340 340 339 340 340 340 340 339 339 338 338 338 338 338 339 339 340 341 341 341 341 341 342 340 336 336 342 340 341 342 342 342 341 340 341 340 339 339 339 339 338 336 334 332 331 329 327 328 334 335 335 336 337 338 338 339 338 339 342 343 341 341 340 340 339 340 339 339 339
319 322 324 327 328 329 330 331 330 329 330 331 329 331 334 337 338 338 338 339 339 339 339 338 338 338 337 336 336 335 335 336 339 340 340 340 340 340 340 338 336 336 339 340 340 340 342 342 341 339 339 340 340 339 339 338 336 334 333 331 329 327 325 325 333 334 334 332 337 339 338 336 337 340 340 340 340 340 340 340 339 338 338 338 338
318 321 323 325 326 328 329 331 330 331 331 332 333 334 330 332 334 335 336 337 338 338 337 337 336 335 335 334 332 329 329 330 334 336 338 337 335 336 337 337 336 336 338 338 340 339 340 339 340 340 340 339 337 337 337 336 333 332 330 328 326 324 323 326 331 332 333 335 337 337 337 337 337 339 339 340 340 339 339 339 338 337 338 338 337
317 320 321 324 325 326 328 329 329 330 331 332 333 333 329 327 330 333 334 335 336 335 335 334 331 328 329 328 326 329 328 332 326 333 329 332 331 332 332 336 337 337 336 339 339 341 339 339 340 339 339 337 335 334 334 333 332 330 328 326 322 321 328 329 330 330 332 333 336 337 335 337 338 340 340 338 338 339 339 338 338 337 337 337 336
317 319 321 323 325 326 328 329 329 330 331 331 331 331 332 327 328 328 329 330 332 332 332 329 325 323 323 323 322 333 335 336 335 337 325 335 323 324 330 336 336 335 336 336 340 340 340 340 338 338 337 335 332 330 329 331 330 328 326 323 320 328 329 329 329 328 330 333 335 337 334 337 338 337 338 338 339 337 336 337 337 336 336 336 335
315 317 319 322 324 326 327 328 330 329 330 330 330 330 331 330 334 335 335 332 330 327 331 334 323 332 321 327 331 331 333 334 334 326 335 331 327 322 325 333 336 335 334 335 337 340 338 339 338 336 333 331 327 329 327 325 326 326 323 320 326 326 326 326 328 329 330 332 334 334 334 336 336 337 338 337 337 335 336 335 335 335 335 335 334
313 316 319 321 323 326 327 327 329 329 329 329 330 331 330 331 332 334 334 329 329 329 334 330 330 329 327 329 328 331 331 332 333 330 329 320 327 321 325 329 331 332 332 332 334 336 337 336 335 333 331 328 327 327 326 325 321 316 316 324 324 323 323 325 326 328 330 332 335 330 333 336 336 336 336 336 336 334 334 334 334 334 334 334 333
312 315 317 321 323 324 326 327 329 329 328 328 330 331 331 330 330 331 332 332 332 331 331 329 329 328 327 328 329 329 329 331 319 316 318 330 326 321 323 324 324 325 325 329 331 333 334 333 331 329 327 324 325 324 322 321 321 321 322 324 323 322 323 324 326 328 330 331 334 329 333 334 334 334 335 334 334 334 334 333 332 333 332 332 332
312 316 318 320 322 323 325 327 329 330 328 328 327 329 330 329 328 329 329 329 328 328 328 327 327 328 328 328 328 327 327 327 327 327 327 328 330 330 330 332 332 328 323 327 327 328 328 328 326 323 322 321 321 320 320 319 319 319 320 319 319 321 322 323 325 327 329 332 333 327 330 334 334 333 334 334 333 333 332 332 331 331 330 330 330
314 315 316 318 321 323 325 327 329 328 328 328 327 328 328 328 326 327 327 327 327 327 326 325 325 326 327 327 326 325 325 326 328 327 326 328 328 328 329 329 329 326 324 324 323 322 322 323 322 320 319 319 320 320 318 317 317 317 318 318 318 319 319 319 320 323 326 331 332 325 329 332 333 332 332 333 333 332 332 331 332 330 329 330 329
311 313 315 318 320 323 324 327 328 328 327 328 328 327 327 328 327 326 325 325 326 325 325 325 325 325 326 326 325 324 324 325 326 325 325 327 327 327 327 327 327 324 323 322 320 320 320 319 319 318 318 318 317 317 318 318 317 317 316 316 317 318 318 319 319 321 326 331 326 323 325 329 332 332 332 332 333 332 333 332 331 330 330 330 329
312 312 315 317 319 322 323 325 328 328 327 328 327 326 327 327 326 323 324 323 324 324 324 325 324 324 324 326 325 325 324 323 325 325 325 326 326 326 325 326 325 323 321 320 318 318 318 318 317 317 317 317 317 316 317 317 317 317 316 316 316 317 317 318 319 322 326 330 331 323 323 326 329 332 332 332 333 333 333 332 331 331 331 330 330
310 311 313 316 318 321 324 324 327 327 327 328 327 326 326 326 324 323 323 321 323 324 325 325 323 323 323 325 325 324 324 325 325 325 325 326 324 322 323 323 323 320 319 318 318 317 317 317 317 316 316 316 316 315 315 315 316 316 316 315 315 316 317 318 319 321 324 327 330 326 322 326 330 331 331 331 332 333 333 332 331 331 331 331 330
309 311 313 315 318 320 324 325 326 327 327 327 327 326 326 325 323 322 323 321 323 324 324 323 323 322 322 323 325 325 324 325 325 325 324 324 323 321 321 320 321 320 318 317 317 317 316 316 316 315 315 315 314 314 314 314 314 314 315 314 314 314 316 318 319 321 322 324 327 328 319 323 327 330 330 330 330 331 332 332 331 330 331 330 330
309 310 311 314 317 320 322 325 326 326 327 326 326 326 326 325 324 323 323 321 323 323 322 323 322 322 322 322 323 324 325 325 324 323 325 323 322 321 320 319 319 318 317 315 316 316 316 316 315 315 315 314 313 313 314 313 313 313 313 313 312 313 314 316 317 319 320 321 324 325 324 321 325 327 329 330 330 329 329 331 330 329 328 329 328
308 309 311 314 317 319 320 324 326 327 326 326 325 325 325 325 324 324 323 322 323 322 322 322 321 322 322 322 322 323 323 325 325 324 323 321 321 321 319 318 318 318 317 315 315 316 316 315 315 315 314 314 313 313 314 313 312 311 312 312 313 313 313 315 316 316 316 321 322 323 323 323 321 324 327 330 329 329 329 329 329 328 328 328 327
306 309 310 313 315 318 320 322 326 327 326 326 325 325 325 325 324 323 323 322 322 322 321 321 321 321 322 322 322 323 323 323 323 324 322 321 321 319 318 318 318 317 316 316 315 314 314 313 313 313 313 313 312 312 313 312 311 310 311 310 311 310 312 314 314 314 313 316 320 321 323 324 324 318 320 324 327 328 329 328 328 328 327 326 326
302 306 311 312 314 317 319 322 324 326 326 326 325 325 324 324 324 324 323 323 322 322 321 321 321 321 321 322 322 322 322 323 323 322 322 320 319 318 317 317 316 315 315 315 314 314 313 312 312 313 311 312 311 311 311 310 310 310 309 308 309 309 310 311 311 310 310 312 315 319 320 322 322 323 323 318 321 324 328 328 327 327 326 326 325
299 302 306 309 312 315 318 320 322 325 325 324 324 324 324 324 323 323 323 322 322 322 322 322 321 320 321 321 322 321 322 323 322 320 320 320 318 317 316 316 315 315 315 314 314 313 313 312 312 311 310 311 311 310 311 310 310 309 308 309 308 308 309 309 309 309 310 310 314 315 318 320 321 322 322 322 314 319 324 327 327 326 326 326 324
297 298 302 307 310 313 316 318 322 323 324 324 325 325 324 324 324 319 323 322 322 322 322 322 321 320 320 321 322 321 322 322 322 321 320 319 318 316 315 314 313 315 312 312 314 311 311 311 312 312 309 308 308 308 310 310 310 309 308 308 308 308 309 308 308 308 307 309 311 312 314 317 320 320 317 321 322 320 319 323 325 326 325 325 325
297 297 298 302 307 311 314 316 319 322 323 324 324 325 324 324 323 322 323 322 322 322 322 322 321 320 320 321 321 320 321 321 321 321 321 319 317 316 312 312 313 315 312 312 312 311 311 310 310 312 312 308 308 307 307 308 308 307 306 306 307 308 309 308 308 308 308 308 309 310 312 314 316 312 318 318 319 321 318 321 324 324 322 323 324
298 298 299 302 304 308 311 315 318 321 322 323 323 324 324 324 323 323 321 322 322 322 322 322 320 320 320 320 321 319 319 320 321 321 321 319 318 315 312 312 312 312 311 311 311 310 309 310 308 309 310 310 308 307 306 307 307 306 304 304 305 306 307 308 308 306 307 308 309 310 311 313 316 318 317 315 315 317 320 317 317 318 316 320 325
297 298 299 303 305 308 311 314 315 318 321 322 322 323 323 323 323 322 321 321 321 322 322 321 320 319 319 320 320 319 318 320 320 320 320 317 315 313 312 311 311 310 310 310 309 308 308 308 308 306 308 310 309 307 306 306 304 303 301 301 302 302 303 305 307 308 307 306 306 306 307 309 312 315 315 315 313 314 315 317 320 322 322 320 326
297 297 298 299 302 305 310 312 314 316 319 321 320 320 321 319 317 319 319 319 320 319 320 320 320 319 319 319 319 319 318 318 319 319 318 315 314 312 311 311 311 310 309 308 307 307 307 307 307 307 306 305 306 306 305 303 302 300 299 298 298 301 302 304 305 306 305 304 304 305 306 306 308 312 314 313 312 312 312 312 311 315 319 319 320
297 296 297 297 298 302 305 307 311 315 317 318 319 319 318 319 319 318 317 319 318 319 319 320 320 319 319 319 319 318 317 317 317 318 316 312 314 313 311 310 311 310 310 308 308 307 308 308 306 306 306 304 303 305 303 304 302 299 299 298 298 297 298 302 303 304 304 303 304 305 304 305 306 308 309 311 310 309 309 309 310 311 313 315 315
295 296 296 297 297 299 301 305 309 313 316 318 319 319 320 320 319 318 319 318 318 317 317 319 319 319 319 319 318 318 317 316 315 316 314 313 312 311 310 310 310 311 310 309 308 305 306 306 306 305 306 305 303 304 304 307 303 301 300 296 297 298 296 296 299 298 301 302 303 303 304 305 305 303 304 307 308 308 308 308 308 310 310 311 312
295 295 296 296 296 297 298 300 304 308 312 315 317 318 318 320 319 319 319 319 319 319 320 319 319 319 319 319 318 317 316 316 316 315 314 313 313 311 310 310 310 309 308 306 306 305 306 305 306 306 304 304 304 304 306 311 303 303 301 299 295 299 300 299 296 292 294 300 301 303 303 303 303 303 305 306 306 306 304 305 307 307 307 308 307
295 295 295 295 296 296 297 298 299 302 307 311 313 317 319 319 321 320 321 320 319 317 318 319 318 318 317 318 317 317 316 316 316 315 314 313 312 312 312 311 310 309 308 306 305 305 306 306 306 306 306 302 302 302 305 306 305 303 300 300 297 298 295 298 294 292 290 293 301 301 301 302 300 300 305 306 305 305 304 303 304 302 301 301 303
294 294 295 295 295 296 297 299 299 300 302 306 311 315 317 318 318 319 319 318 319 318 316 316 316 315 315 316 316 317 316 316 316 316 314 313 313 312 312 311 310 309 309 307 306 306 306 306 307 306 306 305 303 303 301 299 305 309 302 297 295 295 297 298 293 293 292 295 293 294 297 298 299 300 302 301 301 303 303 302 300 299 299 299 300
294 294 295 295 295 296 298 299 300 300 300 302 306 311 314 315 315 315 313 314 313 313 312 313 314 313 314 316 317 317 316 316 316 315 315 313 313 312 311 310 310 308 308 308 307 307 306 306 307 306 306 307 305 303 301 298 303 304 305 303 300 298 297 294 300 296 291 291 292 290 292 293 294 295 295 296 299 298 299 300 297 298 297 299 300
294 295 295 295 295 296 297 298 299 300 301 302 303 306 311 314 314 314 315 314 313 314 316 316 315 316 317 317 316 316 316 315 315 315 314 313 313 312 311 310 310 309 307 308 307 306 306 307 306 306 307 306 306 303 302 299 298 299 301 301 296 299 302 299 299 295 293 293 292 291 291 290 290 292 293 292 293 295 295 295 296 295 295 295 296
294 294 294 294 295 295 296 297 299 299 300 301 302 303 306 310 312 314 314 315 314 315 316 316 317 316 317 316 316 315 316 316 315 314 314 313 312 312 311 310 309 308 306 307 307 307 306 306 305 307 307 306 306 304 302 300 300 300 294 295 295 301 304 306 305 300 299 296 291 289 290 290 290 289 289 290 290 293 293 293 293 293 292 293 294
294 294 294 294 295 295 295 296 297 299 300 300 300 302 303 307 310 311 313 315 316 315 315 315 316 316 316 316 315 315 315 315 314 313 313 313 310 311 310 309 308 308 306 307 307 307 306 305 304 305 305 305 306 306 303 300 302 300 291 292 297 301 301 298 301 300 301 298 295 294 292 289 291 290 290 290 290 290 292 292 292 293 292 293 294
294 294 294 294 294 294 294 295 296 298 299 299 299 301 302 304 307 309 310 312 315 316 315 315 315 316 314 314 314 314 314 314 313 313 313 313 312 311 309 308 308 308 305 307 306 306 306 305 305 305 305 304 305 305 304 302 303 300 300 295 295 297 298 296 299 299 298 301 296 294 296 291 291 290 291 291 291 291 291 291 292 293 293 293 292
294 293 294 294 294 293 294 294 295 297 299 298 298 299 301 303 305 307 309 310 312 314 314 314 315 314 313 314 314 313 313 313 313 312 313 312 311 310 308 308 308 305 304 306 305 305 305 305 305 305 304 304 304 305 304 303 303 298 299 294 298 297 297 298 299 298 299 293 294 296 294 296 297 289 289 290 291 291 291 292 292 292 293 293 292
Wind_Speed
8 8 6 7 11 12 13 14 14 13 13 12 12 12 11 12 11 10 9 8 8 8 8 8 8 8 8 7 7 7 9 9 9 8 8 9 9 9 10 10 11 11 12 13 13 13 13 14 14 16 18 15 17 22 19 19 20 19 18 19 19 18 17 15 14 15 15 15 16 15 14 14 16 16 17 17 17 13 11 11 11 13 13 15 18
5 9 7 6 11 12 13 15 14 14 13 13 14 14 13 12 11 10 10 9 10 9 9 9 9 9 10 10 9 8 10 10 10 9 9 9 10 10 10 10 12 12 13 14 14 14 15 14 16 17 19 20 18 18 20 19 19 19 18 18 18 16 15 13 13 14 13 13 13 12 12 15 15 16 17 16 16 12 10 9 8 11 11 17 16
4 9 8 8 9 10 13 14 15 15 15 14 14 14 13 11 11 11 11 10 11 10 10 9 9 10 10 11 10 11 11 10 11 11 10 10 10 11 11 11 12 13 13 14 14 15 15 16 14 18 21 20 22 20 20 21 19 17 18 16 13 13 14 12 12 14 11 11 12 12 11 12 14 15 17 16 16 13 10 10 9 13 13 17 15
7 10 8 9 10 9 12 14 14 14 14 14 14 15 12 12 11 11 11 11 11 11 10 10 10 11 12 12 12 13 12 11 13 12 11 11 12 12 11 11 12 13 14 14 15 16 16 16 16 19 19 20 18 19 20 19 18 17 16 14 14 14 14 13 12 14 10 10 11 11 9 10 11 15 16 16 16 12 10 10 10 15 18 16 17
8 8 9 9 9 9 11 14 14 14 14 14 14 15 13 12 12 12 11 11 12 11 10 11 11 12 11 12 14 13 12 13 14 13 13 12 13 13 12 12 13 13 14 15 16 17 16 16 14 19 20 19 22 22 19 19 20 18 16 15 15 14 14 14 14 15 11 8 8 8 9 11 10 14 16 17 17 12 10 11 13 16 17 17 17
8 8 9 9 8 8 9 12 14 15 15 15 15 15 14 13 13 13 12 12 13 12 11 11 11 11 11 13 14 12 13 15 14 13 14 13 14 14 13 12 13 14 15 15 16 18 17 14 19 16 18 17 16 19 22 22 19 18 16 16 16 15 14 14 13 12 9 9 7 6 9 11 10 10 17 17 16 12 11 13 16 16 16 18 17
8 7 8 9 7 9 8 8 14 13 15 14 14 14 14 13 13 14 14 13 13 12 11 11 11 11 12 13 13 12 15 16 15 14 13 14 14 14 13 13 14 15 16 17 17 18 18 15 18 21 22 18 19 21 21 22 19 18 17 17 16 16 15 14 12 10 9 7 5 6 8 11 10 8 16 17 17 16 17 18 18 17 17 17 17
6 8 9 10 8 7 10 9 12 14 14 15 15 15 14 14 14 14 14 14 13 13 12 12 12 11 12 13 12 13 14 15 14 14 13 13 12 13 14 14 14 15 17 17 18 18 17 18 19 24 25 18 22 23 21 21 21 20 17 17 18 17 16 14 12 10 8 5 4 5 8 9 11 9 16 18 19 19 19 19 19 19 18 17 14
8 7 8 9 9 11 13 11 12 14 15 15 15 15 15 14 13 13 14 14 15 15 14 13 12 10 11 11 10 9 14 16 13 13 13 12 11 12 13 14 15 16 17 18 19 20 16 19 20 20 21 19 19 22 21 21 21 20 18 17 17 17 16 14 12 11 8 4 5 6 6 8 9 11 16 18 19 19 20 18 17 19 18 13 12
7 7 8 7 8 12 14 14 15 14 14 15 15 15 16 14 13 13 14 14 14 15 15 14 12 9 10 4 5 8 13 13 15 16 12 11 10 12 12 14 16 16 17 19 19 20 14 23 20 21 22 24 23 21 22 21 21 19 18 18 17 17 15 14 12 10 7 6 6 6 5 3 9 9 16 21 21 21 16 11 10 11 12 13 14
6 7 7 7 9 13 14 14 14 15 14 15 15 16 16 15 14 15 15 16 16 15 16 12 7 6 7 5 10 13 12 11 14 14 14 13 11 12 12 13 15 17 17 19 20 18 18 23 20 20 24 21 20 23 22 22 19 19 18 17 17 16 15 13 12 7 7 7 7 6 7 5 9 10 18 22 21 18 15 14 15 15 17 20 20
7 7 6 7 7 12 13 14 15 14 13 14 16 16 17 15 15 16 16 15 15 16 11 5 6 6 6 7 9 10 10 12 13 14 13 13 12 12 12 13 14 17 18 18 20 18 20 19 20 22 24 23 23 23 24 22 20 19 16 15 15 15 14 11 8 7 7 8 7 7 8 8 11 13 20 23 22 19 16 16 18 21 21 21 21
6 6 6 6 7 11 13 15 14 14 13 13 15 16 16 16 15 15 15 15 14 15 8 6 6 8 9 11 11 11 11 12 11 12 13 13 13 13 13 14 14 17 18 18 18 17 18 19 25 26 25 22 25 22 19 21 21 20 15 13 15 14 12 11 8 9 7 7 7 7 7 9 8 15 22 24 23 22 21 20 19 19 22 22 22
4 5 5 6 6 8 12 13 13 14 13 14 15 15 15 15 16 17 14 13 16 11 9 8 8 9 10 12 12 11 11 12 11 12 13 14 13 13 13 13 14 15 19 19 16 19 19 23 24 26 25 23 22 21 22 21 22 18 16 14 13 14 13 11 10 8 8 7 7 8 8 8 12 17 21 23 24 22 22 20 20 19 20 22 23
6 5 5 4 5 6 9 13 12 13 13 14 14 13 15 15 17 17 14 14 13 11 10 10 9 10 10 12 13 12 11 11 12 13 13 13 13 13 13 13 14 15 17 20 16 20 20 21 22 25 25 24 24 22 23 24 23 21 17 14 14 11 13 8 7 8 7 7 7 8 8 11 13 18 20 20 21 22 23 20 20 20 21 20 22
4 5 5 6 6 6 7 9 11 11 10 11 13 12 13 15 15 15 15 13 13 12 11 11 11 11 11 10 11 11 11 11 12 12 12 12 12 12 11 12 13 15 15 13 18 21 19 22 24 22 27 26 26 24 22 23 22 17 17 15 14 11 13 9 7 8 7 6 7 7 10 10 15 18 20 20 19 21 23 21 22 22 22 22 23
4 5 7 8 8 7 7 7 9 10 11 10 10 9 10 12 15 14 12 10 8 11 12 12 11 11 11 11 11 10 9 11 12 11 12 11 12 10 9 2 4 12 11 11 18 21 20 24 22 24 25 27 29 26 23 21 20 17 13 13 13 11 13 11 7 6 6 7 7 7 11 10 15 18 19 21 23 22 24 23 21 21 21 22 22
5 6 7 7 7 8 7 7 8 10 10 9 10 10 11 12 13 13 11 9 10 12 12 12 12 11 10 9 9 9 8 9 11 11 10 9 9 7 4 4 11 9 11 14 15 19 20 23 25 23 24 26 25 26 24 19 17 14 13 13 12 11 12 12 7 6 6 6 6 7 7 11 15 19 21 21 21 23 23 23 21 21 22 21 21
6 7 7 8 10 9 9 8 9 9 10 9 9 9 11 11 12 11 11 11 13 12 12 11 11 11 10 10 9 8 9 11 10 8 6 6 3 5 5 10 9 9 9 20 17 22 20 20 21 26 26 26 27 25 23 20 14 14 13 11 11 13 12 8 6 6 6 5 6 8 10 14 16 19 20 21 21 20 22 22 22 21 22 21 21
7 8 9 9 9 10 8 9 9 10 9 9 8 10 10 13 13 13 12 12 14 13 13 12 11 11 10 9 9 8 7 8 9 7 5 2 5 4 8 8 4 7 1 13 21 23 27 27 25 26 26 26 26 24 21 19 17 15 12 10 12 11 7 5 7 5 4 4 6 6 10 14 18 19 20 21 19 18 19 21 21 21 23 22 20
6 9 10 9 10 11 10 8 10 12 10 9 8 9 8 11 11 13 13 12 14 14 13 13 12 10 9 9 8 6 5 4 5 5 5 1 3 7 6 8 9 8 10 7 24 28 30 27 24 29 26 25 23 21 21 18 15 13 13 11 11 7 5 8 7 5 3 3 6 7 13 15 20 20 20 21 21 19 16 18 21 21 21 22 21
7 8 10 10 9 10 11 11 9 12 10 8 7 7 7 9 8 8 9 10 12 12 11 9 9 6 7 6 5 4 4 3 3 5 4 3 3 9 6 4 7 8 8 10 0 34 30 27 26 28 26 23 21 14 14 16 17 14 13 11 7 5 5 6 7 6 4 3 4 8 12 15 20 20 22 23 22 20 21 20 22 22 22 21 21
8 8 8 12 11 9 10 11 13 12 10 10 8 8 7 7 6 8 7 9 10 12 8 9 6 6 6 5 4 4 4 3 3 4 3 5 4 8 9 8 6 6 9 9 22 17 17 30 32 27 28 24 14 11 10 9 9 12 9 6 4 6 6 6 7 5 4 3 4 10 13 19 20 21 21 23 23 21 21 21 21 21 21 21 22
10 8 9 8 10 10 12 12 13 13 10 8 9 9 8 6 5 5 6 6 7 8 8 7 6 6 7 6 4 4 4 3 6 4 4 3 6 10 13 10 9 9 10 9 12 14 19 18 23 25 17 9 8 8 9 9 9 7 6 6 6 5 7 6 5 4 4 4 4 9 13 17 19 20 20 19 19 20 20 20 20 20 20 20 21
7 6 7 9 12 12 10 12 12 11 10 8 9 9 9 6 6 6 7 7 7 8 8 7 7 7 7 6 5 4 3 5 6 5 4 5 6 7 7 6 6 8 9 6 5 7 9 8 8 8 8 8 8 7 7 9 7 8 7 7 6 5 6 5 4 3 3 3 4 7 10 15 19 19 20 20 20 19 19 18 18 19 18 19 18
3 7 10 9 11 12 11 10 11 12 10 9 8 9 9 9 7 8 8 7 9 9 8 8 7 8 7 6 5 5 5 5 6 4 4 6 7 7 7 5 6 7 7 7 6 6 6 7 7 7 6 8 7 7 6 6 8 7 7 7 6 6 6 5 4 4 3 3 5 9 9 12 16 18 19 19 21 19 21 20 19 19 19 19 18
6 10 8 7 8 12 13 11 11 11 13 11 9 9 9 8 8 8 9 9 8 9 10 9 8 8 7 6 7 6 6 6 6 8 6 6 7 7 7 7 8 7 6 8 8 7 7 7 7 7 6 8 8 6 6 6 5 8 7 6 5 6 6 5 4 4 4 3 5 9 8 11 16 19 18 18 21 22 22 21 20 20 20 20 19
7 11 9 7 8 14 13 13 12 11 11 11 10 10 9 8 9 8 8 9 9 10 11 10 9 8 7 7 7 7 7 6 6 7 8 7 7 6 6 6 7 6 6 7 9 8 8 8 7 9 8 6 9 7 6 5 5 6 7 6 5 5 5 5 5 5 5 4 5 6 4 5 15 18 19 19 21 22 22 22 22 21 21 20 20
10 12 7 8 13 10 12 15 14 12 11 11 11 10 8 8 8 10 10 9 9 9 10 9 10 9 8 9 9 8 7 8 8 7 8 9 7 6 5 4 6 7 7 7 8 9 8 9 9 9 9 7 7 7 7 6 6 6 7 6 5 6 6 5 5 5 6 5 4 4 6 13 13 15 17 20 21 23 24 24 21 21 20 21 21
12 9 8 10 7 8 11 15 16 14 13 11 10 10 10 10 8 11 10 10 10 9 10 10 9 10 9 9 10 7 7 8 7 7 8 8 7 8 6 7 7 6 6 8 8 9 9 7 9 10 10 7 7 7 8 7 7 5 6 7 6 6 6 6 6 5 5 5 5 4 9 14 16 17 18 18 21 22 24 24 23 21 20 20 21
9 12 11 9 5 7 12 14 14 13 11 12 11 11 10 9 9 8 8 10 10 9 9 9 10 10 10 10 10 8 9 8 7 8 8 8 8 8 7 6 6 6 6 7 7 9 9 9 8 9 11 10 8 6 8 8 7 6 5 7 6 6 6 5 5 5 6 5 5 4 8 16 15 16 17 18 19 19 21 24 23 21 18 18 18
9 11 9 6 8 11 12 12 13 12 11 12 11 11 12 12 11 8 9 10 9 9 9 9 10 10 10 11 10 9 8 9 10 9 9 8 8 9 7 7 8 7 5 6 7 8 9 9 8 8 9 10 8 6 6 8 7 6 6 6 6 6 6 5 5 5 5 5 6 6 5 9 17 16 17 19 20 21 21 22 22 21 19 19 18
7 9 9 8 10 10 9 12 12 12 12 13 13 11 10 12 12 10 9 9 10 10 10 11 10 10 10 11 11 11 9 8 9 9 9 9 8 8 7 8 9 6 6 7 8 8 9 9 8 8 8 9 8 7 6 6 9 6 6 6 7 6 5 4 4 4 5 5 6 6 6 8 11 13 14 14 17 20 22 23 23 21 20 18 18
8 7 7 10 9 5 7 8 11 13 14 12 12 11 11 9 11 10 11 11 11 11 11 11 10 10 10 12 12 11 10 8 9 9 9 8 8 8 9 9 8 8 6 7 7 7 8 10 9 9 8 10 9 7 8 7 6 6 5 6 6 5 5 6 4 4 4 4 6 7 7 8 8 8 9 11 13 14 17 21 23 22 19 20 19
10 10 10 10 9 8 7 8 10 13 13 14 12 13 13 11 9 10 10 12 10 10 11 11 10 10 9 10 12 12 11 11 11 9 10 9 9 7 9 7 9 10 7 6 9 7 8 10 9 10 7 8 9 6 8 7 8 8 5 4 5 5 5 4 4 4 4 3 6 7 7 7 8 7 7 5 5 12 14 17 21 22 21 20 21
17 13 12 10 9 8 8 10 11 13 14 14 15 11 11 12 11 9 10 12 10 11 11 11 11 10 10 11 13 11 13 13 11 11 9 9 8 9 8 8 10 9 9 7 7 9 8 7 7 11 11 7 9 6 5 8 7 8 6 4 4 4 5 5 5 5 3 5 6 7 7 6 8 7 7 6 4 8 15 14 18 19 20 19 20
16 15 14 13 12 9 8 10 13 14 15 15 14 15 10 10 12 12 12 11 11 12 10 9 11 11 10 12 12 11 12 10 12 13 11 11 9 9 9 10 10 8 9 10 8 7 9 8 6 8 12 9 9 9 5 8 8 8 6 6 4 4 5 4 5 5 4 5 7 6 7 5 6 10 8 6 5 6 9 11 15 18 18 16 19
17 17 13 11 11 11 8 8 10 13 13 14 12 11 13 12 10 11 13 11 12 11 10 9 11 9 9 10 12 11 11 9 11 13 10 11 11 10 9 11 9 9 11 10 9 9 6 8 8 6 10 11 10 11 8 7 8 9 8 6 5 4 4 4 5 4 6 4 6 7 7 6 7 10 9 7 7 7 7 9 11 15 18 17 18
15 18 17 12 10 10 9 9 9 11 13 13 13 12 10 11 12 12 10 13 12 11 11 11 9 9 10 11 11 10 10 11 12 12 11 10 9 9 11 12 10 7 8 10 9 10 9 6 8 8 7 10 11 11 10 9 8 9 7 6 5 4 3 4 5 6 6 5 2 7 7 6 5 8 10 8 7 7 7 6 6 6 9 14 10
14 16 19 17 14 12 9 8 9 10 11 12 10 11 10 8 7 9 14 10 8 10 10 11 11 11 11 11 10 8 8 10 12 12 12 11 10 9 11 12 12 12 11 9 9 11 13 12 8 9 11 7 7 11 10 11 10 8 8 7 6 5 5 4 5 5 6 5 3 3 7 5 6 7 10 9 7 7 7 7 6 7 7 13 15
15 16 17 19 17 13 12 13 9 9 9 10 10 10 12 13 13 10 9 13 12 12 13 13 12 11 13 12 13 10 10 9 11 12 11 10 11 10 11 11 11 12 12 12 11 10 10 11 10 7 12 12 6 9 11 13 12 7 7 7 7 5 5 5 5 4 5 4 3 3 5 7 6 4 6 9 9 8 7 8 6 6 7 7 9
18 18 18 17 16 16 13 12 10 9 10 11 12 11 10 11 12 14 12 8 11 13 12 11 13 13 14 13 12 12 12 11 11 11 12 12 11 11 11 12 11 11 13 13 12 10 12 11 10 7 6 14 10 10 11 14 8 9 9 5 5 5 5 5 5 5 3 3 4 2 3 6 8 5 4 8 8 7 8 7 7 6 6 6 6
13 13 14 16 16 15 14 12 9 11 11 12 11 12 11 11 12 12 12 11 8 10 14 15 12 13 13 14 13 13 12 11 10 12 12 13 13 12 13 12 12 11 11 11 13 13 11 14 14 12 9 4 9 9 13 12 10 10 8 9 5 4 1 2 3 4 3 2 2 3 2 5 6 4 3 5 6 6 5 6 7 7 5 6 5
17 17 18 18 15 15 16 16 14 11 10 12 13 14 15 16 15 13 14 14 13 10 8 9 14 16 14 14 12 12 14 13 14 14 11 13 13 13 14 13 13 12 12 13 13 15 12 12 13 14 12 12 8 8 7 5 14 14 10 7 6 5 5 6 3 1 2 2 2 3 0 5 5 4 2 5 5 5 5 4 7 6 6 5 4
14 16 16 15 13 17 18 17 14 12 10 13 15 14 13 13 15 15 11 13 13 11 12 10 10 11 12 11 13 14 16 16 15 15 14 16 15 14 13 12 13 12 13 14 14 15 15 14 15 14 15 12 13 10 8 5 14 14 13 9 3 1 8 7 7 1 1 2 2 1 1 2 5 4 3 3 3 3 5 6 6 5 5 4 4
14 14 14 15 15 16 18 18 15 14 13 14 15 14 12 12 11 12 16 12 12 14 16 15 11 11 12 11 14 17 16 15 14 13 14 14 15 15 15 14 13 13 12 13 13 14 15 15 15 15 15 14 15 13 10 5 8 6 12 6 6 8 13 9 12 7 1 1 1 1 1 2 2 4 3 3 4 3 2 5 5 5 4 3 3
12 12 13 15 17 16 16 17 16 14 14 14 15 13 13 12 14 15 14 16 14 10 11 12 13 15 17 18 15 13 15 14 14 13 14 16 14 13 14 14 13 13 12 12 12 14 15 15 13 12 13 11 12 14 15 12 5 4 5 3 5 5 11 15 12 7 8 2 1 0 1 2 2 3 4 2 3 4 2 3 5 4 3 2 2
15 14 13 13 16 17 17 18 15 15 14 15 16 14 14 13 14 15 16 17 16 14 13 15 16 16 15 17 15 14 15 15 13 13 12 14 15 14 14 14 14 13 14 14 15 14 12 13 14 15 13 12 14 14 14 12 15 11 6 5 7 9 16 9 8 15 14 15 8 2 2 2 2 2 1 1 1 3 5 3 5 5 3 2 2
14 14 14 13 14 15 17 17 18 17 15 18 17 17 14 14 13 13 14 14 16 14 11 9 11 13 16 14 16 15 14 15 15 14 12 14 15 15 15 14 14 13 13 13 13 14 17 15 13 13 14 13 14 13 13 13 12 10 8 3 6 8 7 1 8 2 9 13 9 11 7 2 3 2 2 1 1 1 1 2 2 4 3 3 3
12 13 14 14 14 14 16 18 19 17 17 18 17 18 18 15 13 13 17 16 13 13 11 13 12 11 14 14 14 14 13 13 14 15 13 14 17 16 15 15 15 14 13 14 14 15 15 16 17 15 14 15 11 12 15 12 10 8 12 7 8 8 8 5 7 9 3 10 15 14 12 12 10 3 1 1 1 1 1 1 2 2 3 3 2
12 14 15 14 13 13 15 18 17 16 17 17 19 19 18 16 14 14 16 19 18 17 15 14 16 16 16 16 14 13 14 15 14 14 15 15 17 16 15 15 15 13 13 14 14 15 14 14 15 16 16 16 12 12 13 13 10 9 12 7 12 12 12 13 13 12 11 8 4 10 8 9 9 7 1 1 1 2 2 1 2 2 2 3 3
Wind_Direction
220 214 213 232 199 191 192 195 195 195 194 196 205 208 216 210 208 210 212 220 235 234 228 221 218 227 237 239 236 237 239 237 232 223 216 215 213 215 214 216 222 224 223 225 226 221 217 212 206 186 172 178 182 166 167 160 151 150 148 149 148 145 142 138 134 133 136 137 134 134 134 133 129 125 124 122 119 110 109 112 120 115 112 115 113
150 198 208 211 204 200 196 196 196 199 200 205 207 212 216 217 210 212 216 219 231 238 239 238 236 234 233 237 239 244 246 244 241 236 225 220 219 218 216 217 222 225 225 227 226 223 219 212 213 180 171 184 178 160 158 158 152 151 150 149 147 142 138 130 131 128 132 135 134 130 132 132 129 125 127 125 122 114 114 112 113 117 111 114 112
223 184 200 209 216 208 202 197 198 200 202 207 209 214 219 222 220 219 222 226 231 232 235 239 240 242 244 245 243 247 241 239 241 235 232 229 227 224 222 220 222 226 226 227 227 224 219 215 200 190 173 174 167 177 165 155 152 150 150 141 120 116 117 112 117 126 130 131 129 132 127 128 128 127 131 129 125 118 116 115 112 113 116 114 111
186 184 187 202 221 217 210 200 200 201 205 209 211 214 220 225 233 237 234 229 232 230 229 232 235 237 242 245 246 239 236 235 239 234 229 226 227 226 227 228 225 225 227 228 228 225 220 214 196 187 176 166 163 174 164 151 148 146 133 127 123 117 116 112 112 121 121 119 127 136 134 135 132 133 132 131 127 120 119 117 114 114 117 116 115
187 180 184 192 204 213 215 207 203 206 205 210 212 215 221 225 235 237 241 234 232 233 229 231 230 237 243 247 243 235 230 234 239 236 228 225 226 225 228 232 230 228 228 229 230 227 218 217 186 187 174 167 175 170 156 150 149 137 134 129 125 120 114 113 112 124 119 101 111 133 135 137 134 134 134 132 127 122 123 124 122 121 120 119 118
191 180 183 189 197 203 215 213 208 209 209 210 213 217 222 226 234 236 238 238 235 233 233 239 238 237 238 241 243 237 236 235 239 236 230 228 227 225 225 229 231 232 230 228 230 228 219 201 176 173 171 173 175 169 151 152 147 138 135 131 126 120 114 109 104 106 96 100 114 126 131 137 135 134 135 134 130 129 129 119 117 116 119 120 120
191 186 184 189 188 196 216 222 213 212 215 217 218 219 223 228 231 234 238 242 244 238 235 238 242 241 244 249 241 232 230 231 231 232 231 233 233 231 231 231 230 231 231 228 229 229 219 185 181 163 178 175 187 162 152 149 145 144 136 131 125 120 113 105 101 98 99 115 129 131 135 137 135 133 137 136 132 128 128 127 123 119 117 114 117
192 192 190 191 191 190 201 222 216 216 219 219 220 220 223 227 229 232 234 238 247 249 239 238 242 244 247 250 254 242 240 238 235 234 230 236 237 236 238 234 234 229 231 227 228 226 215 183 184 174 177 177 178 160 156 151 153 146 137 132 125 118 114 108 103 101 97 115 123 127 134 137 139 135 140 138 136 133 128 124 119 120 115 113 110
197 197 194 194 197 196 200 214 221 224 226 224 226 226 226 228 228 231 233 234 239 244 245 246 249 251 256 260 280 297 287 273 256 242 239 238 242 247 247 246 236 233 230 229 228 225 198 190 179 185 170 168 168 161 153 152 152 147 139 129 123 118 112 108 106 107 112 117 126 127 129 138 143 137 139 137 132 127 123 118 116 113 112 106 102
195 199 201 200 202 199 201 206 214 224 233 231 233 230 230 230 231 233 231 233 241 240 242 245 247 246 257 273 277 247 258 279 291 276 248 242 246 253 256 252 241 232 232 229 230 226 192 184 187 183 170 164 167 155 154 150 144 144 140 126 121 117 112 110 106 107 114 122 123 121 118 116 144 136 136 128 124 121 113 114 106 111 114 111 116
185 188 204 207 208 206 206 208 213 220 232 238 241 238 234 233 231 233 232 233 237 238 241 242 245 255 259 230 237 237 243 247 246 270 269 249 245 250 251 250 246 234 232 233 231 219 187 192 185 195 165 165 168 151 151 144 143 144 132 126 123 118 111 110 111 113 118 124 126 121 109 114 134 127 137 125 121 116 112 110 112 114 112 113 114
181 189 196 207 216 216 220 218 219 221 227 235 242 241 240 237 233 232 232 236 237 239 231 206 194 187 222 240 254 244 239 245 247 245 258 261 251 253 254 249 242 240 233 235 232 215 185 182 182 183 166 161 151 149 143 137 133 128 119 120 118 115 112 108 110 115 119 122 119 116 120 135 134 137 133 125 123 119 117 121 123 119 112 114 115
185 188 195 202 211 217 221 224 225 228 229 229 236 241 240 238 236 231 231 238 244 239 214 186 175 201 216 229 234 239 237 242 243 248 242 250 253 250 252 251 248 239 235 235 232 201 185 179 176 157 142 141 137 135 132 133 130 121 125 122 118 114 109 110 113 115 118 120 118 120 123 134 133 144 134 128 125 125 120 119 120 118 117 114 112
179 193 198 205 213 217 222 224 229 231 233 232 231 237 240 243 236 230 231 238 240 219 189 168 180 195 209 218 225 233 237 242 244 240 238 240 245 251 254 256 253 244 236 233 224 193 180 187 167 149 146 145 141 140 139 138 132 130 127 127 119 115 113 107 112 112 114 117 119 122 130 137 139 141 124 127 126 126 121 119 117 119 118 115 115
175 197 203 208 215 217 225 226 230 234 234 234 232 233 239 244 237 231 231 234 232 189 184 193 200 206 211 217 222 236 239 238 244 244 237 234 236 246 254 260 257 246 238 232 207 187 182 176 170 155 146 142 141 148 146 141 136 140 138 131 121 117 117 116 116 114 115 121 123 129 135 133 133 127 129 124 123 126 120 117 117 119 120 120 114
200 197 201 210 213 221 221 236 241 238 239 241 237 236 237 242 238 229 231 234 229 205 193 195 204 210 216 221 228 234 237 243 242 238 237 235 236 242 252 258 256 250 239 228 197 181 192 180 162 154 142 148 145 139 145 135 133 135 134 131 123 113 117 120 118 116 118 123 124 126 134 126 129 129 123 121 124 121 118 123 119 121 119 118 113
216 212 210 214 215 219 225 227 233 245 250 248 243 239 232 237 235 229 228 233 212 195 191 196 204 204 208 215 228 238 247 260 252 232 232 236 238 244 242 207 10 325 229 212 192 170 190 170 160 153 148 145 145 144 137 134 130 130 128 123 117 114 121 122 112 111 118 122 130 132 136 137 133 133 125 130 126 126 122 122 118 112 112 112 111
228 223 222 214 212 216 214 219 226 232 238 239 232 228 218 217 226 229 229 223 211 201 192 198 206 210 210 212 220 241 256 265 256 223 226 231 248 228 216 142 189 231 233 211 190 177 192 169 157 152 144 144 137 139 134 125 126 122 120 117 112 112 120 119 109 113 111 126 134 130 130 135 142 135 134 131 128 126 123 117 114 114 111 108 107
235 232 233 224 221 220 222 220 227 229 231 231 230 220 210 210 218 226 223 221 199 196 194 197 207 211 210 210 217 231 249 253 230 210 225 242 213 162 173 194 203 230 245 207 211 184 184 163 161 151 146 136 138 133 124 121 107 105 103 97 104 113 112 108 96 105 114 129 142 141 142 141 143 140 135 126 126 127 124 123 123 119 111 107 111
232 229 231 230 223 219 218 218 222 226 224 224 225 223 215 211 215 225 224 216 195 191 193 197 205 207 208 213 222 225 224 220 202 195 205 297 166 145 175 184 116 83 9 230 215 188 173 169 166 152 139 134 131 130 123 116 115 111 105 98 111 111 108 102 99 96 114 127 141 143 147 146 141 138 133 127 123 119 121 123 122 121 117 114 116
234 231 227 227 225 226 220 216 216 221 216 212 215 214 214 210 210 213 212 198 185 190 191 194 197 204 205 216 211 201 197 198 185 176 169 145 140 131 159 167 124 109 81 9 217 193 172 171 160 143 130 122 122 117 115 118 121 117 115 114 121 118 120 115 105 97 101 129 151 151 154 148 143 137 137 129 125 124 121 124 118 118 117 116 115
224 229 228 224 225 224 224 219 213 214 207 202 204 207 206 212 200 193 195 187 184 186 190 192 194 191 196 193 193 193 184 185 173 171 154 138 149 143 139 138 120 85 77 30 252 183 169 155 150 129 117 118 119 120 125 131 128 130 124 123 109 105 111 109 115 121 124 141 142 151 149 142 137 135 131 128 127 132 129 122 119 116 115 114 114
239 225 227 218 221 225 221 223 216 208 201 202 204 203 206 208 201 189 185 184 184 185 185 188 177 178 185 186 186 188 183 163 172 155 127 109 140 143 117 96 92 96 86 60 63 74 121 124 122 119 122 125 129 129 128 124 111 103 108 105 109 113 111 106 94 112 124 140 134 143 147 138 140 139 135 131 130 127 120 116 115 114 115 116 115
234 219 224 218 218 221 220 222 218 204 198 201 201 201 211 205 198 195 183 179 179 180 175 178 179 183 186 182 178 179 178 152 72 87 103 141 133 124 125 133 108 89 98 103 83 87 83 69 94 110 109 113 117 122 125 124 122 119 111 110 107 125 125 116 98 115 125 132 125 136 150 148 139 134 133 130 129 128 122 120 120 116 118 117 116
236 232 236 219 217 220 220 221 220 209 199 202 197 195 203 202 202 193 187 178 177 176 178 179 185 186 188 183 167 156 145 141 155 174 145 136 141 131 132 143 135 107 107 82 92 101 92 91 86 82 99 100 100 110 122 123 114 119 115 110 111 110 98 80 108 111 114 129 127 133 145 146 139 140 136 134 128 131 128 123 124 122 117 114 118
244 228 227 224 218 217 217 221 214 213 210 205 197 188 187 198 198 196 191 185 179 178 173 176 182 190 189 177 155 149 150 158 181 142 154 154 155 142 143 144 129 120 106 108 103 100 94 113 109 96 89 102 106 116 113 114 122 112 110 111 115 113 106 104 96 86 98 123 129 132 141 142 146 142 140 138 130 132 127 123 119 119 122 122 128
227 243 239 228 222 219 218 218 213 203 207 214 202 190 191 193 197 193 188 191 186 180 182 178 177 177 176 168 162 157 155 174 180 164 167 163 160 154 151 146 139 123 123 123 118 112 112 108 102 98 102 113 112 111 106 103 102 112 110 111 118 116 111 107 103 106 111 128 132 139 148 144 139 138 141 141 138 133 127 123 123 124 128 131 132
250 250 241 224 219 221 213 215 217 202 201 205 202 190 188 185 194 187 194 190 186 193 189 182 173 172 171 176 174 159 158 174 190 170 168 170 164 156 157 139 130 117 119 123 119 116 118 114 112 111 103 108 121 116 110 108 109 112 116 121 122 112 104 102 104 117 122 129 138 142 102 142 139 144 141 137 136 132 127 129 130 131 132 134 133
257 249 253 239 233 219 209 213 218 205 201 196 201 196 183 186 186 189 194 185 195 197 195 180 173 171 171 175 173 162 165 177 190 178 169 173 155 152 137 133 124 126 126 121 123 121 120 127 129 124 120 126 122 123 115 105 107 109 121 124 117 107 102 104 110 120 131 137 136 122 114 106 108 119 133 137 139 137 134 132 131 133 136 135 132
261 297 275 254 257 224 219 215 216 212 203 194 197 193 189 191 186 190 191 183 198 198 193 187 179 170 169 170 176 164 166 179 176 173 171 165 152 146 137 140 131 133 130 132 135 126 128 128 133 132 127 128 122 126 123 116 105 112 122 117 106 103 107 121 124 124 130 131 129 116 119 115 117 125 133 139 141 139 135 131 134 134 135 135 135
281 270 264 264 283 246 233 225 219 216 204 201 201 199 191 189 187 183 180 189 194 191 192 193 185 178 173 169 171 170 172 177 175 168 173 164 154 149 144 129 128 139 133 134 137 130 129 133 140 139 134 131 128 130 129 120 117 111 114 110 109 106 109 116 105 122 125 126 107 90 129 129 127 131 137 139 139 138 136 133 134 135 135 135 135
273 267 265 273 259 241 238 235 227 219 214 206 203 204 201 201 193 184 188 191 184 186 192 195 193 189 173 169 173 172 171 179 175 170 165 163 159 154 138 140 143 141 133 132 131 127 127 125 128 125 123 123 123 121 121 126 116 113 114 103 103 96 103 102 103 98 117 125 116 113 119 125 129 133 136 138 143 138 136 132 130 136 142 142 138
284 269 274 272 256 252 251 241 234 225 221 213 205 203 200 197 199 195 192 187 190 189 190 192 195 194 182 175 172 172 173 169 177 171 165 162 160 150 145 144 145 133 132 127 119 119 120 118 115 120 119 115 114 112 100 104 117 115 113 108 106 93 87 100 97 94 101 118 124 120 107 114 126 130 125 131 141 145 142 139 135 139 140 142 140
304 300 289 264 261 271 256 251 242 232 224 222 214 208 204 200 193 194 196 188 191 191 194 192 189 193 191 182 176 172 170 172 167 171 165 159 159 156 149 145 134 129 126 128 122 134 129 126 130 128 131 127 127 126 121 108 99 109 102 107 100 107 113 95 77 87 95 118 127 117 114 116 119 114 114 130 150 153 141 139 138 138 142 141 140
333 325 300 282 285 266 261 257 245 242 231 227 224 213 209 208 202 194 191 190 190 192 191 190 189 190 190 192 183 174 171 172 171 161 163 160 159 156 156 144 140 138 133 133 129 132 135 138 140 129 121 123 125 136 126 120 125 118 106 105 105 109 100 97 92 79 104 93 113 108 115 121 120 107 105 91 113 137 135 139 137 138 142 140 141
351 342 326 312 287 277 265 263 259 244 243 231 225 225 212 207 205 205 199 192 193 194 190 192 186 184 187 193 192 180 175 171 165 165 163 167 162 159 159 145 143 137 129 132 129 136 137 139 148 136 125 122 117 108 113 121 117 114 95 87 103 110 104 94 97 99 65 114 103 105 108 122 126 116 113 101 78 120 138 141 133 137 140 141 141
348 348 341 331 314 295 279 264 262 256 246 240 229 220 224 215 206 201 203 197 195 194 194 189 188 184 186 191 193 186 180 161 164 170 169 176 165 157 154 155 157 147 139 141 124 131 140 141 152 142 135 135 126 117 120 122 115 106 87 85 70 105 100 99 114 110 92 99 109 106 101 108 119 123 115 113 103 94 107 116 138 137 138 145 142
347 348 346 327 313 309 293 277 268 266 258 246 241 232 215 217 217 207 201 202 199 195 192 187 189 188 186 190 189 187 185 165 164 173 172 174 171 159 157 158 157 154 144 140 141 136 131 140 145 139 136 133 133 131 126 116 116 113 85 63 65 51 85 95 89 84 74 40 109 111 119 124 138 130 127 126 110 105 104 97 114 143 143 151 152
347 346 346 344 323 307 301 287 279 271 268 263 246 242 239 222 212 209 214 202 196 200 192 191 191 191 192 189 189 189 185 176 172 170 173 170 164 159 158 157 147 147 136 139 139 141 136 136 145 136 136 140 142 139 135 126 116 106 83 72 61 52 49 56 74 86 93 80 25 112 107 127 141 135 125 123 120 115 107 101 95 98 124 117 114
349 348 345 346 346 333 309 293 282 276 275 269 262 249 241 241 243 225 201 204 206 187 192 195 188 189 190 187 187 187 184 180 175 173 171 166 163 163 162 159 156 156 149 148 154 152 151 144 146 144 129 106 118 124 122 110 97 80 92 73 54 25 37 51 67 77 102 94 64 99 116 124 128 140 128 128 125 119 112 103 94 101 102 107 110
354 353 350 346 344 342 330 320 303 290 278 273 264 249 237 233 236 236 239 202 191 201 193 189 191 189 182 186 185 189 187 184 179 172 168 162 163 157 159 167 163 160 159 163 164 155 146 142 143 145 139 130 128 137 137 123 115 79 67 77 67 36 32 41 60 59 78 99 95 91 126 125 116 121 122 125 126 122 121 113 108 107 108 115 108
351 351 351 346 340 340 341 324 315 299 280 270 264 253 244 235 226 225 223 227 216 190 202 197 190 185 184 185 183 185 187 189 183 173 166 164 162 164 167 170 169 168 163 164 158 151 149 142 141 137 157 143 148 157 155 129 126 138 135 111 64 65 41 40 46 38 33 78 109 88 117 121 120 104 98 110 111 121 120 120 118 109 100 99 97
346 347 343 343 343 342 339 334 321 312 294 279 270 263 255 253 241 233 220 223 221 232 202 193 191 188 185 187 183 181 186 189 184 177 167 170 169 164 173 171 172 163 157 159 154 154 161 152 153 152 153 141 140 174 167 157 142 135 116 99 134 121 75 44 40 32 11 39 79 122 125 112 110 90 118 110 115 116 108 121 116 113 106 97 89
348 348 349 347 342 341 338 335 330 318 302 290 274 266 262 255 252 246 234 213 211 206 239 206 187 180 183 185 181 181 186 189 189 182 174 170 169 173 174 175 175 167 159 158 163 160 163 160 160 156 155 145 154 184 213 146 141 136 146 157 163 143 135 218 149 48 348 7 79 117 197 129 112 102 132 118 123 121 119 122 115 110 102 92 93
346 343 343 344 340 335 334 333 328 324 308 300 288 276 266 262 254 247 246 242 224 210 202 212 198 183 172 180 183 183 190 191 189 187 181 173 171 171 173 176 174 169 166 162 166 168 167 168 164 159 163 159 161 166 196 205 168 170 141 113 74 155 206 162 131 68 33 133 54 22 53 37 106 102 93 93 87 98 120 113 108 104 105 102 107
344 341 338 336 338 335 332 332 331 328 324 313 303 288 272 261 265 249 234 235 227 202 202 198 190 175 181 180 194 192 191 190 187 185 184 175 174 175 174 172 174 171 173 170 169 166 167 169 173 165 165 171 164 162 172 236 209 169 172 144 138 168 168 162 153 186 18 9 353 26 16 31 43 94 79 86 116 114 81 105 108 116 113 105 105
337 335 336 335 335 335 333 329 330 328 326 322 314 298 280 268 257 257 251 234 230 225 211 193 189 193 184 187 194 191 189 188 189 188 186 179 172 176 174 172 175 174 169 165 171 171 170 172 169 170 170 162 163 167 171 175 192 271 219 170 115 117 136 149 183 103 159 211 27 79 10 24 41 74 103 115 119 124 111 111 124 125 113 115 130
335 335 336 334 334 333 332 330 328 328 327 327 322 310 288 276 267 260 251 245 236 222 211 206 193 179 191 189 182 189 190 189 186 187 186 180 175 174 177 173 175 177 168 172 172 170 171 171 172 170 166 171 171 171 176 175 175 184 168 157 119 143 159 185 159 171 166 166 188 351 31 9 48 45 65 146 181 144 140 144 133 128 131 132 140
332 332 332 333 331 331 330 330 330 329 332 332 329 320 303 281 272 270 266 249 236 226 205 216 208 190 183 184 185 184 187 190 188 185 185 183 178 176 175 174 174 177 174 172 171 171 171 165 172 172 170 174 180 176 171 179 193 172 150 139 120 146 150 74 146 90 163 158 171 180 173 27 55 33 27 19 353 354 92 132 130 131 146 146 146
327 325 326 330 332 331 329 329 330 329 330 332 332 326 316 299 281 269 268 269 249 230 219 201 207 196 194 187 189 182 182 186 189 189 183 187 184 177 174 175 176 176 178 174 171 173 173 172 173 172 175 174 179 177 176 179 189 166 183 149 125 139 147 137 182 172 190 185 167 183 177 167 175 159 78 71 48 40 57 108 120 128 132 135 137
325 328 328 327 327 328 326 326 327 325 327 332 334 332 326 315 296 282 273 269 267 243 221 213 201 195 197 190 187 189 180 183 185 188 187 186 185 179 175 176 176 174 178 172 173 174 175 173 175 173 174 173 176 176 179 175 174 161 182 181 173 172 171 178 178 182 169 168 157 166 160 184 162 135 104 26 61 52 64 59 105 128 132 133 140